        Date        , GPU Core Clock [MHz] , GPU Memory Clock [MHz] , GPU Temperature [�C] , Fan Speed [%] , GPU Load [%] , Fan Speed [RPM] , GPU Temp.(DISPIO) [�C] , GPU Temp.(MEMIO) [�C] , GPU Temp.(SHADERCORE) [�C] , VDDC Current [A] , VDDC Slave #1 Temperature [�C] , VDDC Slave #2 Temperature [�C] , VDDC Slave #3 Temperature [�C] , VDDC [V] ,
2009-05-20 21:39:05 ,              750.0   ,                900.0   ,               80.0   ,          26   ,         92   ,          1108   ,                 80.0   ,                92.0   ,                     82.0   ,           29.1   ,                         70.0   ,                         69.0   ,                         69.0   , 1.2625   ,
2009-05-20 21:39:06 ,              750.0   ,                900.0   ,               79.0   ,          22   ,         60   ,          1182   ,                 80.0   ,                92.5   ,                     82.0   ,           29.1   ,                         70.0   ,                         69.0   ,                         68.0   , 1.2625   ,
2009-05-20 21:39:07 ,              750.0   ,                900.0   ,               80.0   ,          22   ,         28   ,          1127   ,                 80.0   ,                92.0   ,                     82.0   ,           29.1   ,                         70.0   ,                         69.0   ,                         68.0   , 1.2625   ,
2009-05-20 21:39:08 ,              500.0   ,                900.0   ,               79.0   ,          22   ,          0   ,          1085   ,                 79.5   ,                92.0   ,                     81.5   ,           28.5   ,                         70.0   ,                         69.0   ,                         68.0   , 1.2625   ,
2009-05-20 21:39:09 ,              500.0   ,                900.0   ,               80.0   ,          22   ,          0   ,          1259   ,                 79.5   ,                92.0   ,                     81.5   ,           28.5   ,                         70.0   ,                         69.0   ,                         68.0   , 1.2625   ,
2009-05-20 21:39:11 ,              500.0   ,                900.0   ,               80.0   ,          22   ,          0   ,          1119   ,                 80.0   ,                92.0   ,                     82.0   ,           28.5   ,                         69.0   ,                         69.0   ,                         69.0   , 1.2625   ,
2009-05-20 21:39:12 ,              500.0   ,                900.0   ,               80.0   ,          22   ,          0   ,          1084   ,                 80.0   ,                92.0   ,                     82.0   ,           28.5   ,                         70.0   ,                         69.0   ,                         68.0   , 1.2625   ,
2009-05-20 21:39:13 ,              500.0   ,                900.0   ,               80.0   ,          26   ,          0   ,          1435   ,                 80.0   ,                91.5   ,                     81.5   ,           28.5   ,                         70.0   ,                         69.0   ,                         68.0   , 1.2625   ,
2009-05-20 21:39:14 ,              500.0   ,                900.0   ,               80.0   ,          26   ,          0   ,          1200   ,                 80.0   ,                92.5   ,                     82.0   ,           28.5   ,                         70.0   ,                         69.0   ,                         68.0   , 1.2625   ,
2009-05-20 21:39:15 ,              500.0   ,                900.0   ,               80.0   ,          22   ,          0   ,          1152   ,                 80.0   ,                92.5   ,                     82.0   ,           28.5   ,                         70.0   ,                         69.0   ,                         68.0   , 1.2625   ,
2009-05-20 21:39:16 ,              500.0   ,                900.0   ,               79.0   ,          22   ,          0   ,          1092   ,                 79.5   ,                92.0   ,                     81.5   ,           28.5   ,                         70.0   ,                         69.0   ,                         69.0   , 1.2625   ,
2009-05-20 21:39:17 ,              500.0   ,                900.0   ,               80.0   ,          26   ,          0   ,          1352   ,                 80.5   ,                92.0   ,                     82.0   ,           28.5   ,                         70.0   ,                         69.0   ,                         69.0   , 1.2625   ,
2009-05-20 21:39:18 ,              500.0   ,                900.0   ,               80.0   ,          22   ,          6   ,          1278   ,                 80.0   ,                92.0   ,                     82.0   ,           28.5   ,                         70.0   ,                         69.0   ,                         69.0   , 1.2625   ,
2009-05-20 21:39:19 ,              750.0   ,                900.0   ,               80.0   ,          26   ,          0   ,          1370   ,                 79.5   ,                92.0   ,                     81.5   ,           29.1   ,                         70.0   ,                         69.0   ,                         68.0   , 1.2625   ,
2009-05-20 21:39:20 ,              750.0   ,                900.0   ,               79.0   ,          22   ,          0   ,          1216   ,                 80.0   ,                92.0   ,                     81.0   ,           29.1   ,                         70.0   ,                         69.0   ,                         68.0   , 1.2625   ,
2009-05-20 21:39:21 ,              500.0   ,                900.0   ,               79.0   ,          22   ,          0   ,          1108   ,                 79.5   ,                92.0   ,                     81.5   ,           28.5   ,                         70.0   ,                         69.0   ,                         68.0   , 1.2625   ,
2009-05-20 21:39:22 ,              500.0   ,                900.0   ,               79.0   ,          22   ,          0   ,          1085   ,                 79.0   ,                92.5   ,                     82.0   ,           28.5   ,                         70.0   ,                         69.0   ,                         69.0   , 1.2625   ,
2009-05-20 21:39:23 ,              500.0   ,                900.0   ,               79.0   ,          22   ,          0   ,          1080   ,                 80.0   ,                92.0   ,                     82.0   ,           28.5   ,                         70.0   ,                         69.0   ,                         68.0   , 1.2625   ,
2009-05-20 21:39:24 ,              500.0   ,                900.0   ,               79.0   ,          22   ,          0   ,          1079   ,                 80.5   ,                92.5   ,                     81.5   ,           28.5   ,                         70.0   ,                         69.0   ,                         69.0   , 1.2625   ,
2009-05-20 21:39:25 ,              500.0   ,                900.0   ,               79.0   ,          22   ,          0   ,          1080   ,                 79.5   ,                92.5   ,                     82.0   ,           28.5   ,                         69.0   ,                         69.0   ,                         68.0   , 1.2625   ,
2009-05-20 21:39:26 ,              500.0   ,                900.0   ,               79.0   ,          22   ,          0   ,          1080   ,                 79.5   ,                92.0   ,                     81.5   ,           28.5   ,                         69.0   ,                         69.0   ,                         69.0   , 1.2625   ,
2009-05-20 21:39:27 ,              500.0   ,                900.0   ,               79.0   ,          22   ,          0   ,          1079   ,                 80.0   ,                92.0   ,                     81.5   ,           28.5   ,                         70.0   ,                         69.0   ,                         68.0   , 1.2625   ,
2009-05-20 21:39:28 ,              500.0   ,                900.0   ,               79.0   ,          22   ,          0   ,          1079   ,                 79.5   ,                92.0   ,                     82.0   ,           28.5   ,                         70.0   ,                         69.0   ,                         69.0   , 1.2625   ,
2009-05-20 21:39:29 ,              500.0   ,                900.0   ,               80.0   ,          22   ,          0   ,          1079   ,                 80.0   ,                92.5   ,                     81.5   ,           28.5   ,                         70.0   ,                         69.0   ,                         69.0   , 1.2625   ,
2009-05-20 21:39:30 ,              750.0   ,                900.0   ,               80.0   ,          22   ,          0   ,          1077   ,                 79.5   ,                92.0   ,                     82.5   ,           29.1   ,                         70.0   ,                         69.0   ,                         69.0   , 1.2625   ,
2009-05-20 21:39:31 ,              750.0   ,                900.0   ,               79.0   ,          22   ,          0   ,          1195   ,                 79.5   ,                92.0   ,                     82.0   ,           29.1   ,                         70.0   ,                         69.0   ,                         69.0   , 1.2625   ,
2009-05-20 21:39:32 ,              500.0   ,                900.0   ,               80.0   ,          26   ,          0   ,          1341   ,                 80.0   ,                92.5   ,                     82.0   ,           29.1   ,                         70.0   ,                         69.0   ,                         69.0   , 1.2625   ,
2009-05-20 21:39:33 ,              750.0   ,                900.0   ,               80.0   ,          26   ,          0   ,          1449   ,                 80.0   ,                92.0   ,                     82.0   ,           29.1   ,                         70.0   ,                         69.0   ,                         68.0   , 1.2625   ,
2009-05-20 21:39:34 ,              750.0   ,                900.0   ,               80.0   ,          26   ,          0   ,          1423   ,                 80.5   ,                92.0   ,                     82.0   ,           29.8   ,                         70.0   ,                         69.0   ,                         69.0   , 1.2625   ,
2009-05-20 21:39:35 ,              500.0   ,                900.0   ,               79.0   ,          22   ,          2   ,          1270   ,                 79.0   ,                92.0   ,                     81.5   ,           28.5   ,                         70.0   ,                         69.0   ,                         69.0   , 1.2625   ,
2009-05-20 21:39:36 ,              750.0   ,                900.0   ,               80.0   ,          22   ,          0   ,          1305   ,                 80.0   ,                92.0   ,                     81.0   ,           29.1   ,                         70.0   ,                         69.0   ,                         69.0   , 1.2625   ,
2009-05-20 21:39:37 ,              750.0   ,                900.0   ,               80.0   ,          22   ,          0   ,          1189   ,                 80.5   ,                92.5   ,                     81.5   ,           29.1   ,                         70.0   ,                         69.0   ,                         69.0   , 1.2625   ,
2009-05-20 21:39:38 ,              500.0   ,                900.0   ,               79.0   ,          22   ,          0   ,          1185   ,                 79.5   ,                92.0   ,                     81.5   ,           28.5   ,                         70.0   ,                         69.0   ,                         68.0   , 1.2625   ,
2009-05-20 21:39:39 ,              500.0   ,                900.0   ,               79.0   ,          22   ,          0   ,          1102   ,                 79.5   ,                92.0   ,                     82.0   ,           28.5   ,                         70.0   ,                         69.0   ,                         69.0   , 1.2625   ,
2009-05-20 21:39:40 ,              500.0   ,                900.0   ,               80.0   ,          22   ,          0   ,          1083   ,                 79.5   ,                92.0   ,                     81.5   ,           28.5   ,                         70.0   ,                         69.0   ,                         69.0   , 1.2625   ,
2009-05-20 21:39:41 ,              500.0   ,                900.0   ,               80.0   ,          22   ,          0   ,          1199   ,                 79.5   ,                92.5   ,                     81.5   ,           28.5   ,                         70.0   ,                         69.0   ,                         69.0   , 1.2625   ,
2009-05-20 21:39:42 ,              500.0   ,                900.0   ,               80.0   ,          22   ,          0   ,          1104   ,                 80.0   ,                92.5   ,                     81.5   ,           28.5   ,                         70.0   ,                         69.0   ,                         68.0   , 1.2625   ,
2009-05-20 21:39:43 ,              500.0   ,                900.0   ,               80.0   ,          22   ,          0   ,          1247   ,                 79.5   ,                92.0   ,                     80.5   ,           28.5   ,                         70.0   ,                         69.0   ,                         68.0   , 1.2625   ,
2009-05-20 21:39:44 ,              500.0   ,                900.0   ,               80.0   ,          22   ,          0   ,          1235   ,                 80.0   ,                92.0   ,                     81.5   ,           28.5   ,                         70.0   ,                         69.0   ,                         68.0   , 1.2625   ,
2009-05-20 21:39:45 ,              500.0   ,                900.0   ,               80.0   ,          22   ,          0   ,          1113   ,                 80.0   ,                92.0   ,                     81.0   ,           28.5   ,                         70.0   ,                         69.0   ,                         69.0   , 1.2625   ,
2009-05-20 21:39:46 ,              500.0   ,                900.0   ,               80.0   ,          22   ,          0   ,          1112   ,                 79.5   ,                92.0   ,                     81.5   ,           28.5   ,                         70.0   ,                         69.0   ,                         68.0   , 1.2625   ,
2009-05-20 21:39:47 ,              500.0   ,                900.0   ,               80.0   ,          22   ,          0   ,          1337   ,                 80.0   ,                92.5   ,                     81.5   ,           28.5   ,                         70.0   ,                         69.0   ,                         68.0   , 1.2625   ,
200

.
.
.
2009-05-20 21:52:58 ,              750.0   ,                900.0   ,               86.0   ,          30   ,         92   ,          1906   ,                 86.5   ,                99.0   ,                     89.5   ,           54.9   ,                         92.0   ,                         93.0   ,                         92.0   , 1.2625   ,
2009-05-20 21:52:59 ,              750.0   ,                900.0   ,               86.0   ,          30   ,         94   ,          1862   ,                 86.5   ,                99.0   ,                     89.0   ,           54.9   ,                         92.0   ,                         93.0   ,                         92.0   , 1.2625   ,
2009-05-20 21:53:00 ,              750.0   ,                900.0   ,               86.0   ,          30   ,         98   ,          1850   ,                 87.0   ,                99.5   ,                     89.0   ,           52.8   ,                         92.0   ,                         93.0   ,                         92.0   , 1.2625   ,
2009-05-20 21:53:01 ,              750.0   ,                900.0   ,               87.0   ,          30   ,         98   ,          1839   ,                 87.0   ,                99.0   ,                     89.0   ,           52.8   ,                         92.0   ,                         92.0   ,                         92.0   , 1.2625   ,
2009-05-20 21:53:02 ,              750.0   ,                900.0   ,               87.0   ,          30   ,         98   ,          1841   ,                 86.5   ,                99.5   ,                     89.0   ,           52.2   ,                         92.0   ,                         93.0   ,                         92.0   , 1.2625   ,
2009-05-20 21:53:03 ,              750.0   ,                900.0   ,               87.0   ,          30   ,         98   ,          1846   ,                 87.0   ,                99.5   ,                     89.0   ,           52.2   ,                         92.0   ,                         92.0   ,                         91.0   , 1.2625   ,
2009-05-20 21:53:04 ,              750.0   ,                900.0   ,               86.0   ,          30   ,         97   ,          1839   ,                 86.0   ,                99.5   ,                     89.5   ,           52.2   ,                         92.0   ,                         92.0   ,                         91.0   , 1.2625   ,
2009-05-20 21:53:05 ,              750.0   ,                900.0   ,               85.0   ,          30   ,         95   ,          1838   ,                 86.5   ,                98.5   ,                     88.0   ,           49.5   ,                         91.0   ,                         92.0   ,                         91.0   , 1.2625   ,
2009-05-20 21:53:06 ,              750.0   ,                900.0   ,               86.0   ,          30   ,         90   ,          1837   ,                 86.0   ,                98.5   ,                     88.5   ,           51.5   ,                         91.0   ,                         92.0   ,                         90.0   , 1.2625   ,
2009-05-20 21:53:07 ,              750.0   ,                900.0   ,               86.0   ,          30   ,         86   ,          1837   ,                 85.5   ,                99.0   ,                     88.0   ,           51.5   ,                         91.0   ,                         92.0   ,                         91.0   , 1.2625   ,
2009-05-20 21:53:08 ,              750.0   ,                900.0   ,               85.0   ,          30   ,         83   ,          1841   ,                 84.5   ,                98.5   ,                     88.0   ,           48.8   ,                         90.0   ,                         91.0   ,                         89.0   , 1.2625   ,
2009-05-20 21:53:09 ,              750.0   ,                900.0   ,               86.0   ,          30   ,         84   ,          1833   ,                 86.5   ,                99.0   ,                     89.0   ,           53.5   ,                         91.0   ,                         92.0   ,                         91.0   , 1.2625   ,
2009-05-20 21:53:10 ,              750.0   ,                900.0   ,               86.0   ,          30   ,         89   ,          1833   ,                 86.0   ,                99.5   ,                     89.0   ,           54.2   ,                         92.0   ,                         93.0   ,                         92.0   , 1.2625   ,
2009-05-20 21:53:11 ,              750.0   ,                900.0   ,               86.0   ,          30   ,         91   ,          1834   ,                 85.5   ,                99.5   ,                     88.5   ,           49.5   ,                         91.0   ,                         92.0   ,                         91.0   , 1.2625   ,
2009-05-20 21:53:12 ,              750.0   ,                900.0   ,               85.0   ,          30   ,         87   ,          1837   ,                 86.0   ,                99.0   ,                     89.0   ,           50.1   ,                         91.0   ,                         92.0   ,                         90.0   , 1.2625   ,
2009-05-20 21:53:13 ,              750.0   ,                900.0   ,               86.0   ,          30   ,         86   ,          1839   ,                 86.0   ,                99.5   ,                     88.5   ,           53.5   ,                         92.0   ,                         92.0   ,                         92.0   , 1.2625   ,
2009-05-20 21:53:14 ,              750.0   ,                900.0   ,               86.0   ,          30   ,         89   ,          1847   ,                 86.0   ,                99.0   ,                     88.5   ,           50.8   ,                         92.0   ,                         92.0   ,                         91.0   , 1.2625   ,
2009-05-20 21:53:15 ,              750.0   ,                900.0   ,               86.0   ,          34   ,         91   ,          1836   ,                 86.0   ,                99.5   ,                     88.5   ,           52.8   ,                         91.0   ,                         92.0   ,                         91.0   , 1.2625   ,
2009-05-20 21:53:16 ,              750.0   ,                900.0   ,               86.0   ,          30   ,         91   ,          1852   ,                 87.0   ,                99.0   ,                     89.0   ,           51.5   ,                         91.0   ,                         92.0   ,                         91.0   , 1.2625   ,
2009-05-20 21:53:17 ,              750.0   ,                900.0   ,               86.0   ,          30   ,         90   ,          1891   ,                 86.5   ,                99.5   ,                     88.5   ,           52.8   ,                         92.0   ,                         93.0   ,                         91.0   , 1.2625   ,
2009-05-20 21:53:18 ,              750.0   ,                900.0   ,               86.0   ,          34   ,         91   ,          1848   ,                 87.0   ,                99.5   ,                     88.5   ,           54.9   ,                         91.0   ,                         92.0   ,                         91.0   , 1.2625   ,
2009-05-20 21:53:19 ,              750.0   ,                900.0   ,               87.0   ,          34   ,         93   ,          2031   ,                 87.0   ,                99.5   ,                     89.0   ,           54.2   ,                         93.0   ,                         93.0   ,                         92.0   , 1.2625   ,
2009-05-20 21:53:20 ,              750.0   ,                900.0   ,               86.0   ,          30   ,         90   ,          1916   ,                 86.5   ,                99.0   ,                     89.0   ,           46.7   ,                         91.0   ,                         91.0   ,                         90.0   , 1.2625   ,
2009-05-20 21:53:21 ,              750.0   ,                900.0   ,               86.0   ,          30   ,         90   ,          1853   ,                 86.5   ,                99.5   ,                     89.0   ,           52.8   ,                         91.0   ,                         92.0   ,                         91.0   , 1.2625   ,
2009-05-20 21:53:22 ,              750.0   ,                900.0   ,               85.0   ,          30   ,         79   ,          1857   ,                 85.5   ,                97.5   ,                     88.0   ,           42.0   ,                         89.0   ,                         89.0   ,                         89.0   , 1.2625   ,